TimeCDT,TemperatureF,Dew PointF,Humidity,Sea Level PressureIn,VisibilityMPH,Wind Direction,Wind SpeedMPH,Gust SpeedMPH,PrecipitationIn,Events,Conditions,WindDirDegrees,DateUTC
12:15 AM,57.6,46.9,68,29.86,10.0,SSW,4.6,-,N/A,,Clear,200,2012-10-17 05:15:00
12:35 AM,56.5,46.9,70,29.86,10.0,SW,3.5,-,N/A,,Clear,220,2012-10-17 05:35:00
12:55 AM,55.4,47.1,74,29.86,10.0,Calm,Calm,-,N/A,,Clear,0,2012-10-17 05:55:00
1:15 AM,55.4,47.5,75,29.85,10.0,South,3.5,-,N/A,,Clear,190,2012-10-17 06:15:00
1:35 AM,55.9,47.8,74,29.85,10.0,South,4.6,-,N/A,,Clear,190,2012-10-17 06:35:00
1:55 AM,56.3,48.0,74,29.86,10.0,Calm,Calm,-,N/A,,Clear,0,2012-10-17 06:55:00
2:15 AM,55.4,48.0,76,29.85,10.0,Calm,Calm,-,N/A,,Clear,0,2012-10-17 07:15:00
2:35 AM,54.5,47.8,78,29.85,10.0,Calm,Calm,-,N/A,,Clear,0,2012-10-17 07:35:00
2:55 AM,54.3,48.0,79,29.85,10.0,Calm,Calm,-,N/A,,Clear,0,2012-10-17 07:55:00
3:15 AM,54.3,47.7,78,29.85,10.0,Calm,Calm,-,N/A,,Clear,0,2012-10-17 08:15:00
3:35 AM,54.5,47.8,78,29.84,10.0,Calm,Calm,-,N/A,,Clear,0,2012-10-17 08:35:00
3:55 AM,54.1,48.0,80,29.84,10.0,South,3.5,-,N/A,,Clear,180,2012-10-17 08:55:00
4:15 AM,54.0,47.8,80,29.84,10.0,Calm,Calm,-,N/A,,Clear,0,2012-10-17 09:15:00
4:35 AM,53.8,47.7,80,29.85,10.0,South,3.5,-,N/A,,Clear,190,2012-10-17 09:35:00
4:55 AM,53.6,47.7,80,29.84,10.0,South,3.5,-,N/A,,Clear,180,2012-10-17 09:55:00
5:15 AM,53.6,47.8,81,29.84,10.0,Calm,Calm,-,N/A,,Clear,0,2012-10-17 10:15:00
5:35 AM,53.4,48.2,82,29.85,10.0,South,3.5,-,N/A,,Clear,190,2012-10-17 10:35:00
5:55 AM,53.6,48.4,82,29.85,10.0,Calm,Calm,-,N/A,,Clear,0,2012-10-17 10:55:00
6:15 AM,53.2,48.2,83,29.85,10.0,SSE,3.5,-,N/A,,Clear,160,2012-10-17 11:15:00
6:35 AM,53.4,48.4,83,29.85,10.0,South,3.5,-,N/A,,Clear,190,2012-10-17 11:35:00
6:55 AM,53.6,48.6,83,29.85,10.0,South,3.5,-,N/A,,Clear,190,2012-10-17 11:55:00
7:15 AM,53.8,48.7,83,29.85,10.0,South,4.6,-,N/A,,Clear,190,2012-10-17 12:15:00
7:35 AM,54.3,48.7,81,29.85,10.0,South,4.6,-,N/A,,Clear,190,2012-10-17 12:35:00
8:15 AM,56.7,49.1,76,29.86,10.0,South,4.6,-,N/A,,Clear,180,2012-10-17 13:15:00
8:35 AM,58.3,49.3,72,29.86,10.0,South,6.9,-,N/A,,Clear,190,2012-10-17 13:35:00
8:55 AM,60.3,49.3,67,29.86,10.0,South,6.9,-,N/A,,Clear,180,2012-10-17 13:55:00
9:15 AM,62.2,48.7,61,29.86,10.0,South,9.2,-,N/A,,Clear,180,2012-10-17 14:15:00
9:35 AM,64.4,47.5,54,29.85,10.0,SSW,10.4,16.1,N/A,,Clear,210,2012-10-17 14:35:00
10:15 AM,67.6,45.5,45,29.84,10.0,South,10.4,-,N/A,,Clear,180,2012-10-17 15:15:00
10:35 AM,68.7,44.6,42,29.83,10.0,South,9.2,-,N/A,,Clear,180,2012-10-17 15:35:00
10:55 AM,69.3,45.1,42,29.83,10.0,South,12.7,17.3,N/A,,Clear,170,2012-10-17 15:55:00
11:15 AM,70.2,45.5,41,29.82,10.0,South,10.4,-,N/A,,Clear,170,2012-10-17 16:15:00
11:35 AM,71.1,45.7,40,29.82,10.0,South,11.5,18.4,N/A,,Clear,180,2012-10-17 16:35:00
11:55 AM,72.5,44.6,37,29.81,10.0,South,9.2,16.1,N/A,,Clear,170,2012-10-17 16:55:00
12:15 PM,73.8,43.9,34,29.80,10.0,South,11.5,18.4,N/A,,Clear,180,2012-10-17 17:15:00
12:35 PM,74.1,44.2,34,29.78,10.0,South,9.2,16.1,N/A,,Clear,190,2012-10-17 17:35:00
12:55 PM,73.8,44.2,35,29.77,10.0,South,10.4,20.7,N/A,,Scattered Clouds,170,2012-10-17 17:55:00
1:15 PM,73.6,45.1,36,29.76,10.0,SSW,11.5,17.3,N/A,,Mostly Cloudy,200,2012-10-17 18:15:00
1:35 PM,75.2,44.8,34,29.75,10.0,South,15.0,19.6,N/A,,Scattered Clouds,180,2012-10-17 18:35:00
1:55 PM,75.7,44.6,33,29.74,10.0,South,9.2,19.6,N/A,,Clear,180,2012-10-17 18:55:00
2:15 PM,75.6,44.6,33,29.74,10.0,South,13.8,18.4,N/A,,Scattered Clouds,180,2012-10-17 19:15:00
2:35 PM,76.1,44.6,33,29.72,10.0,South,15.0,21.9,N/A,,Scattered Clouds,190,2012-10-17 19:35:00
2:55 PM,74.3,44.1,34,29.72,10.0,South,8.1,-,N/A,,Clear,180,2012-10-17 19:55:00
3:15 PM,74.7,45.1,35,29.71,10.0,South,13.8,20.7,N/A,,Clear,190,2012-10-17 20:15:00
3:35 PM,76.1,44.6,33,29.70,10.0,South,15.0,18.4,N/A,,Clear,190,2012-10-17 20:35:00
3:55 PM,76.3,44.4,32,29.70,10.0,SSW,10.4,24.2,N/A,,Clear,210,2012-10-17 20:55:00
4:15 PM,75.6,44.8,33,29.69,10.0,South,10.4,21.9,N/A,,Clear,180,2012-10-17 21:15:00
4:35 PM,75.2,45.1,34,29.69,10.0,South,16.1,21.9,N/A,,Clear,180,2012-10-17 21:35:00
4:55 PM,74.1,45.1,35,29.69,10.0,South,12.7,19.6,N/A,,Clear,190,2012-10-17 21:55:00
5:15 PM,73.4,45.5,37,29.68,10.0,South,12.7,21.9,N/A,,Clear,190,2012-10-17 22:15:00
5:35 PM,72.0,45.3,38,29.68,10.0,South,8.1,-,N/A,,Clear,180,2012-10-17 22:35:00
5:55 PM,70.7,45.5,40,29.68,10.0,South,6.9,-,N/A,,Clear,180,2012-10-17 22:55:00
6:15 PM,69.6,45.7,42,29.67,10.0,South,6.9,-,N/A,,Scattered Clouds,180,2012-10-17 23:15:00
6:35 PM,68.9,45.7,43,29.66,10.0,South,8.1,-,N/A,,Clear,170,2012-10-17 23:35:00
6:55 PM,68.7,45.5,43,29.66,10.0,South,8.1,-,N/A,,Clear,170,2012-10-17 23:55:00
7:15 PM,68.4,45.3,44,29.65,10.0,SSE,6.9,16.1,N/A,,Clear,160,2012-10-18 00:15:00
7:35 PM,67.8,46.0,46,29.65,10.0,South,6.9,-,N/A,,Clear,170,2012-10-18 00:35:00
7:55 PM,67.1,46.0,47,29.63,10.0,South,9.2,-,N/A,,Clear,170,2012-10-18 00:55:00
8:15 PM,66.6,44.4,45,29.61,10.0,SSE,13.8,19.6,N/A,,Clear,160,2012-10-18 01:15:00
8:35 PM,66.4,42.8,42,29.59,10.0,SSE,10.4,20.7,N/A,,Clear,160,2012-10-18 01:35:00
8:55 PM,66.0,42.1,42,29.60,10.0,South,11.5,19.6,N/A,,Clear,180,2012-10-18 01:55:00
9:15 PM,66.2,41.9,41,29.61,10.0,South,11.5,21.9,N/A,,Clear,170,2012-10-18 02:15:00
9:35 PM,65.7,42.4,43,29.62,10.0,South,9.2,16.1,N/A,,Clear,180,2012-10-18 02:35:00
9:55 PM,65.5,42.8,44,29.62,10.0,South,11.5,19.6,N/A,,Clear,190,2012-10-18 02:55:00
10:15 PM,65.8,42.6,43,29.62,10.0,South,12.7,18.4,N/A,,Clear,190,2012-10-18 03:15:00
10:35 PM,65.8,42.6,43,29.60,10.0,South,11.5,24.2,N/A,,Clear,180,2012-10-18 03:35:00
10:55 PM,66.0,42.4,42,29.59,10.0,South,11.5,17.3,N/A,,Clear,170,2012-10-18 03:55:00
11:15 PM,66.2,42.6,42,29.56,10.0,South,11.5,23.0,N/A,,Clear,170,2012-10-18 04:15:00
11:35 PM,66.2,42.6,42,29.56,10.0,SSE,13.8,20.7,N/A,,Clear,160,2012-10-18 04:35:00
11:55 PM,66.6,42.8,42,29.56,10.0,South,11.5,21.9,N/A,,Clear,180,2012-10-18 04:55:00